Flag for Germany Weather past 2 weeks in Heidelberg, Baden-Württemberg, Germany

Now
45 °F

Passing clouds.


Feels Like: 42 °F
Forecast: 33 / 52 °F
Wind: 5 mph from South

Location: Baden Wurttemberg - Neuostheim

Current Time: Mar 6, 2015 at 12:14:59 PM

Latest Report: Mar 6, 2015 at 11:20 AM


Visibility: N/A

Pressure: 30.66 "Hg

Humidity: 61%

Dew point: 32 °F

Location of HeidelbergLocation

Historic Weather in Heidelberg — Graph

°F

Heidelberg temperature yesterday

Maximum temperature yesterday: 46 °F (at 1:50 PM)
Minimum temperature yesterday: 36 °F (at 6:50 AM)
Average temperature yesterday: 43 °F

Past Weeks' High & Low Weather Summary

 TemperatureHumidityPressure
High55 °F (Feb 20, 3:20 PM)100% (Feb 22, 7:50 AM)30.69 "Hg (Feb 22, 7:50 AM)
Low30 °F (Feb 28, 7:50 AM)35% (Mar 2, 3:20 PM)29.47 "Hg (Feb 23, 2:20 PM)
Average42 °F71%30.02 "Hg
* Reported Feb 19 10:20 AM — Mar 6 10:50 AM, Heidelberg, Weather by CustomWeather, © 2015

Note: Actual official high and low records may vary slightly from our data, if they occured in-between our weather recording intervals... More about our weather records

Advertising

Heidelberg weather history for previous 24 hours

 ConditionsComfort  
Time TempWeatherWind HumidityBarometerVisibility
10:50 AM
Fri, Mar 6
45 °FScattered clouds.6 mph61%30.66 "HgN/A
10:20 AM41 °FPassing clouds.5 mph70%30.66 "HgN/A
9:50 AM39 °FScattered clouds.6 mph75%30.66 "HgN/A
9:20 AM37 °FPartly sunny.5 mph81%30.66 "HgN/A
8:50 AM36 °FScattered clouds.5 mph81%30.69 "HgN/A
8:20 AM34 °FScattered clouds.3 mph87%30.66 "HgN/A
7:50 AM32 °FPartly sunny.5 mph93%30.66 "HgN/A
7:20 AM32 °FPartly sunny.2 mph87%30.66 "HgN/A
6:50 AM32 °FOvercast.2 mph93%30.66 "HgN/A
6:20 AM30 °FPassing clouds.2 mph93%30.66 "HgN/A
5:50 AM30 °FClear.2 mph93%30.66 "Hg10 mi
8:50 PM
Thu, Mar 5
43 °FPassing clouds.7 mph61%30.63 "HgN/A
8:20 PM43 °FPassing clouds.7 mph61%30.63 "HgN/A
7:50 PM43 °FPassing clouds.5 mph57%30.63 "HgN/A
7:20 PM43 °FClear.5 mph57%30.63 "Hg10 mi
6:50 PM43 °FClear.5 mph61%30.63 "Hg10 mi
6:20 PM45 °FPassing clouds.7 mph53%30.60 "HgN/A
5:50 PM46 °FMore clouds than sun.9 mph50%30.60 "HgN/A
5:20 PM46 °FOvercast.6 mph50%30.60 "HgN/A
4:50 PM46 °FBroken clouds.7 mph50%30.60 "HgN/A
4:20 PM46 °FScattered clouds.8 mph53%30.60 "HgN/A
3:50 PM46 °FBroken clouds.12 mph50%30.60 "HgN/A
3:20 PM46 °FBroken clouds.9 mph46%30.60 "HgN/A
2:50 PM46 °FBroken clouds.12 mph50%30.60 "HgN/A
2:20 PM46 °FScattered clouds.9 mph50%30.60 "HgN/A
1:50 PM46 °FPartly sunny.9 mph50%30.60 "HgN/A
1:20 PM45 °FPartly sunny.9 mph53%30.63 "HgN/A
12:50 PM45 °FScattered clouds.8 mph53%30.63 "HgN/A
12:20 PM45 °FScattered clouds.8 mph53%30.63 "HgN/A
Weather by CustomWeather, © 2015

See weather overviewHow to use our weather pages